Location: Middle West Pubnico, Nova Scotia, Canada
(43.6568°N, 65.8177°W)
Time: 16:00:32
(UTC-04:00)

N. Korean satellite - Visible Passes

Search period start: 16 January 2022 00:00
Search period end: 26 January 2022 00:00
Orbit: 446 x 492 km, 97.3° (Epoch: 16 January)

Date Brightness Start Highest point End Pass type
(mag) Time Alt. Az. Time Alt. Az. Time Alt. Az.
16 Jan9.705:17:17S05:17:17S05:08:36NNEvisible
16 Jan 8.9 06:42:38 10° NNW 06:42:40 10° NNW 06:42:40 10° NNW visible
17 Jan 8.7 06:12:52 10° N 06:13:35 15° N 06:13:35 15° N visible
18 Jan 8.7 05:43:34 10° N 05:52:43 - SSW 05:44:31 17° N visible
18 Jan 9.8 17:53:26 10° WSW 17:55:07 13° W 17:56:51 10° WNW visible
19 Jan 9.2 05:14:39 10° NNE 05:23:22 - S 05:15:26 15° NNE visible
19 Jan 8.6 06:48:47 10° NNW 06:49:29 12° NW 06:49:29 12° NW visible
20 Jan 9.8 04:46:17 10° NE 04:46:19 10° NE 04:46:19 10° NE visible
20 Jan 8.1 06:18:46 10° N 06:20:23 21° NNW 06:20:23 21° NNW visible
21 Jan 7.8 05:49:20 10° N 05:58:37 - SSW 05:51:16 30° N visible
21 Jan 10.1 17:59:44 10° WSW 18:00:53 11° W 18:02:00 10° WNW visible
22 Jan 8.4 05:20:15 10° NNE 05:29:10 - S 05:22:09 27° NE visible
22 Jan 8.4 06:54:46 10° NW 06:56:12 13° WNW 06:56:12 13° WNW visible
23 Jan 9.4 04:51:40 10° NE 04:53:00 16° ENE 04:53:00 16° ENE visible
23 Jan 7.6 06:24:28 10° NNW 06:27:04 26° NW 06:27:04 26° NW visible
24 Jan 6.8 05:54:52 10° N 05:57:55 52° NNW 05:57:55 52° NNW visible
25 Jan 7.4 05:25:40 10° NNE 05:34:42 - S 05:28:46 49° ENE visible
25 Jan 8.5 07:00:41 10° NW 07:01:54 11° WNW 07:02:50 11° WNW visible
